Robert Spertsyan

Главный скаут - Ararat
3 Фев 2028
Четверг
Продолжить

Характер

Адаптивность (17) Амбиции (1) Скандальность (19) Верность (2) Стрессоустойчивость (16) Профессионализм (19) Благородство (11) Темперамент (5)

Профиль

Стиль управления Демократичный
Лицензия Континентальная Pro
Решительность 8
Управление людьми 10
Мотивация 5
Дисциплина 6
Удовлетворённость
100%
Усталость
0%
Должность Главный скаут
Зарплата 38.9K в нед.
Контракт 14.03.2029

Производительность

Поведение Хорошее
Эффективность тренировок
39%
Развитие игроков
30%
Профилактика травм
45%
Тактическая реализация
40%

Недавние события

Участвовал в селекционном совещании только что
Рекомендовал трансферную цель только что
Рекомендовал трансферную цель только что
Рекомендовал трансферную цель 7 дн. назад
Рекомендовал трансферную цель 7 дн. назад
Участвовал в селекционном совещании 7 дн. назад
Участвовал в селекционном совещании 7 дн. назад
Представил досье руководству 7 дн. назад

Текущее наблюдение

173
Игрок Клуб Статус Способность Уверенность Наблюдений Последнее наблюдение Последний голос
Thiago López Almagro Активный 92 / 106 40% 2 24.01.2028 -
Abel Bustos Racing Активный 128 / 116 40% 1 24.01.2028 -
Shota Shekiladze Akhmat Grozny Отчёт готов 110 / 110 66% 1 01.01.2028 За
Gonzalo Abrego Godoy Cruz Активный 116 / 130 40% 2 08.12.2027 -
Facundo Heredia Patronato Активный 95 / 110 40% 2 08.12.2027 -
Fernando Bersano Madryn Переговоры 130 / 99 40% 2 07.12.2027 -
Franco Zicarelli Colegiales Активный 111 / 93 40% 2 04.12.2027 -
Sebastián Jaurena San Martín SJ Активный 125 / 126 40% 1 04.12.2027 -
Enzo Martínez Almagro Активный 117 / 124 40% 4 03.12.2027 -
Lautaro Disanto Defensores Unidos Активный 104 / 118 40% 2 02.12.2027 -
Julián Cosi Madryn Активный 131 / 127 40% 1 02.12.2027 -
David Veliz Güemes Активный 100 / 99 40% 2 01.12.2027 -
Valentín Serrano Arsenal Активный 118 / 115 40% 1 01.12.2027 -
Andy Polar Saburtalo Активный 98 / 108 40% 3 28.11.2027 -
Juan Pablo Gobetto Maipú Активный 113 / 95 40% 2 28.11.2027 -
José Mercado Union Magdalena Активный 120 / 114 40% 1 26.11.2027 -
Juan Esteban Ávalo Aguilas Doradas Активный 106 / 110 40% 2 25.11.2027 -
Vicente Poggi Godoy Cruz Активный 112 / 112 40% 1 25.11.2027 -
Giorgi Beridze Dinamo Tbilisi Активный 117 / 101 40% 2 24.11.2027 -
Valentin Pereyra Patronato Активный 121 / 126 40% 1 24.11.2027 -
Augusto Berrondo Tristán Suárez Активный 116 / 116 40% 1 21.11.2027 -
Enzo Silcan Almagro Активный 110 / 111 40% 1 21.11.2027 -
Cristian Zabala Sarmiento Активный 104 / 103 40% 1 20.11.2027 -
Facundo Ardiles Estudiantes Активный 103 / 119 40% 2 19.11.2027 -
Oscar Garrido Mitre Активный 99 / 104 40% 1 19.11.2027 -
Diogo Guzmán Montevideo City Torque Активный 107 / 121 40% 2 18.11.2027 -
Gianluca Pugliese Güemes Активный 116 / 111 40% 2 17.11.2027 -
Martín García Atlanta Активный 106 / 120 40% 3 14.11.2027 -
Tomás Ferreyra Defensores Unidos Активный 122 / 121 40% 1 14.11.2027 -
Juan Pablo Barinaga Patronato Активный 126 / 131 40% 3 11.11.2027 -
Federico Bisanz Atlanta Активный 104 / 104 40% 1 11.11.2027 -
Franco Camargo Gimnasia y Esgrima Активный 100 / 125 40% 1 10.11.2027 -
Luis Olivera Defensores Unidos Активный 124 / 122 40% 1 07.11.2027 -
Tiago Banega Gimnasia y Tiro Активный 97 / 100 40% 1 02.11.2027 -
Miguel Ceccotti Güemes Активный 125 / 92 40% 1 02.11.2027 -
Maximiliano Ribero Central Norte Активный 99 / 113 40% 1 30.10.2027 -
Nicolás Heiz Maipú Активный 109 / 104 40% 1 30.10.2027 -
Maximiliano Luayza Koot Tristán Suárez Активный 117 / 114 40% 1 25.10.2027 -
Erickson Gallardo Zamora Активный 129 / 104 40% 1 25.10.2027 -
Chidiebere Nwobodo Rangers International Активный 105 / 85 40% 1 24.10.2027 -
Ramón González Almirante Brown Активный 109 / 115 40% 1 22.10.2027 -
Kevin Méndez Dinamo Tbilisi Активный 120 / 112 40% 2 19.10.2027 -
Alejo Dramisino Atlanta Активный 106 / 127 40% 1 09.10.2027 -
Maximiliano Rueda Patronato Активный 104 / 120 40% 1 06.10.2027 -
Francisco Funes Los Andes Активный 111 / 89 40% 1 06.10.2027 -
Dante Álvarez San Martín SJ Активный 115 / 112 40% 1 04.10.2027 -
Facundo Nadalín San Martín SJ Активный 120 / 102 40% 1 15.09.2027 -
Diego Gaitán Maipú Активный 93 / 102 40% 1 13.09.2027 -
Santiago Sala Güemes Активный 111 / 105 40% 1 13.09.2027 -
Rodrigo Melo Estudiantes Активный 120 / 105 40% 1 07.09.2027 -
Enock Morrison Gor Mahia Активный 80 / 99 40% 1 06.09.2027 -
Duvan Rangel La Equidad Активный 136 / 138 40% 1 06.09.2027 -
Kevin Bright Alcione Milano Активный 115 / 103 40% 2 10.08.2027 -
Luca Vignali Virtus Entella Активный 132 / 114 40% 1 02.08.2027 -
Javi García Vicenza Активный 93 / 106 40% 1 02.08.2027 -
Andrea Cagnano Arezzo Активный 118 / 113 40% 2 01.08.2027 -
Davide Balestrero Union Brescia Активный 122 / 119 40% 2 01.08.2027 -
Flavio Ciuferri Trapani Активный 113 / 101 40% 2 26.07.2027 -
Tiago Casasola Union Brescia Активный 124 / 112 40% 1 23.07.2027 -
Saimon Ramírez Metropolitanos Активный 94 / 121 40% 1 23.07.2027 -
Enrico Brignola Ternana Активный 115 / 105 40% 2 20.07.2027 -
Adalberto Peñaranda Deportivo Tachira Активный 122 / 113 40% 1 19.07.2027 -
Brian Orosco Godoy Cruz Активный 117 / 101 40% 1 17.07.2027 -
Gastón Moreyra Almirante Brown Активный 115 / 128 40% 1 14.07.2027 -
Federico Giraudo Casarano Активный 108 / 113 40% 1 13.07.2027 -
Danil Lipovoy Ufa Активный 113 / 111 40% 3 09.07.2027 -
Francesco Orlando Cavese Активный 113 / 101 40% 2 09.07.2027 -
Ethan Bristow Tranmere Rovers Активный 95 / 107 40% 4 08.07.2027 -
Francesco D'Alessio Cittadella Активный 121 / 112 40% 1 07.07.2027 -
Christian D'Urso Triestina Активный 95 / 95 40% 1 06.07.2027 -
Bruno Michel Urartu Активный 118 / 120 55% 1 05.07.2027 -
Aboubacar Doumbia Al-Orobah Активный 114 / 93 40% 3 03.07.2027 -
Mattia Vitale Salernitana Активный 106 / 103 40% 1 03.07.2027 -
Ilja Berkovskiy Torpedo Moscow Активный 119 / 99 40% 3 01.07.2027 -
Giacomo Zecca Torres Активный 101 / 114 40% 1 01.07.2027 -
Đorđe Pantelić Spartak Kostroma Активный 107 / 112 40% 5 25.06.2027 -
Alberto Rizzo Union Brescia Активный 104 / 101 40% 1 25.06.2027 -
Isaac Kyereh Liberty Professionals Активный 124 / 122 40% 2 22.06.2027 -
Eyob Zambataro Novara Активный 105 / 101 40% 1 22.06.2027 -
Mohammad Alsalkhadi Damac Активный 128 / 95 40% 3 21.06.2027 -
Kamran Aliev SKA Khabarovsk Активный 89 / 116 40% 3 04.06.2027 -
Goga Kobiashvili Veres Переговоры 92 / 92 66% 1 01.06.2027 За
Josh Dacres-Cogley Stockport County Активный 110 / 112 40% 7 30.05.2027 -
Sergio Rodelas Granada Активный 112 / 119 40% 1 30.05.2027 -
Fortune Bassey Djoliba Активный 91 / 97 40% 3 29.05.2027 -
Roman Dixon Walsall Активный 109 / 109 40% 1 29.05.2027 -
Luca Crecco Sorrento Активный 108 / 107 40% 1 26.05.2027 -
Vladimir Khubulov Dinamo Makhachkala Активный 116 / 100 40% 3 23.05.2027 -
Bruno Figueiredo Zabbar St. Patrick Активный 95 / 85 40% 2 19.05.2027 -
Kevin Halabaku Hibernians Активный 106 / 101 40% 1 19.05.2027 Нужно больше данных
Giuseppe Guadagni Picerno Активный 98 / 113 40% 3 18.05.2027 -
Teddy Okou Al-Riyadh Активный 138 / 99 40% 1 15.05.2027 -
Georges-Kévin Nkoudou Al-Diriyah Активный 127 / 116 40% 2 14.05.2027 -
Temirkan Sundukov Dinamo Makhachkala Активный 110 / 125 40% 1 14.05.2027 -
Sam Gale Gillingham Активный 97 / 108 40% 1 10.05.2027 -
Djibril Coulibaly Real Bamako Активный 103 / 107 40% 1 08.05.2027 -
Igor Gorbunov Arsenal Tula Активный 108 / 82 40% 1 07.05.2027 -
Leo Goglichidze Rodina Активный 114 / 117 40% 3 05.05.2027 -
Lynden Edhart Cambuur Активный 103 / 107 40% 1 05.05.2027 -
Hugo Moura Al-Fayha Активный 132 / 130 40% 1 02.05.2027 -
Kamarni Ryan Burton Albion Активный 99 / 92 40% 1 28.04.2027 -
Robert Murić Floriana Активный 115 / 100 40% 3 26.04.2027 -
Andrey Nikitin Neftekhimik Активный 108 / 82 40% 1 26.04.2027 -
Makan Camara AS Bakaridjan Активный 114 / 109 40% 1 21.04.2027 -
Trezeguet Al-Riyadh Активный 119 / 145 40% 2 20.04.2027 -
Jon Eceizabarrena Real Sociedad Активный 101 / 105 40% 1 19.04.2027 -
Mohammad Javad Hosseinnejad Dinamo Makhachkala Активный 114 / 115 40% 1 14.04.2027 -
Ahmed Al-Nakhli Al-Hazem Активный 97 / 117 40% 1 10.04.2027 -
Malick Touré Onze Createurs Активный 83 / 92 40% 1 09.04.2027 -
Bojan Roganović Torpedo Moscow Активный 102 / 122 40% 1 07.04.2027 -
Nuri Abdokov Fakel Активный 101 / 116 40% 1 07.04.2027 -
Darko Todorović Fakel Активный 104 / 118 40% 1 05.04.2027 -
Ekain Orobengoa Real Sociedad Активный 94 / 107 40% 3 01.04.2027 -
Vasily Cherov Ufa Активный 96 / 117 40% 1 31.03.2027 -
Maxime Sivis Orenburg Активный 134 / 100 40% 1 31.03.2027 -
Mamaye Coulibaly Djoliba Активный 98 / 99 40% 1 30.03.2027 -
Bruno Gomes Valletta Активный 95 / 107 40% 3 29.03.2027 -
Roberto Siucho Najran Активный 91 / 102 40% 1 23.03.2027 -
Ruslan Cherviakov Spartak Kostroma Активный 89 / 94 40% 2 22.03.2027 -
Aaron Drinan Swindon Town Активный 112 / 97 40% 3 17.03.2027 -
Eduardo Armenta Ufa Активный 102 / 117 40% 2 12.03.2027 -
Ahmed Bamasud Al-Fayha Активный 89 / 88 40% 1 11.03.2027 -
Ilja Vakhania Krasnodar Активный 115 / 117 40% 3 03.03.2027 -
Álvaro Medrán Al-Ettifaq Активный 133 / 134 40% 2 02.03.2027 -
Vyacheslav Grulev Nizhniy Novgorod Активный 129 / 128 40% 2 28.02.2027 -
Bruno Almeida AEL Активный 123 / 107 40% 1 27.02.2027 -
Facundo González Yenisey Активный 110 / 81 40% 2 26.02.2027 -
Jordhy Thompson Orenburg Активный 111 / 132 40% 1 26.02.2027 -
Daniel Mancini APOEL Активный 112 / 129 40% 2 25.02.2027 -
Sebastián Arce Rodina Активный 117 / 127 40% 1 25.02.2027 -
Nikolay Giorgobiani Fakel Активный 91 / 121 40% 1 22.02.2027 -
Enzo Cabrera AE Kition Активный 122 / 105 40% 1 20.02.2027 -
Milton Castagna Neftekhimik Активный 108 / 111 40% 1 17.02.2027 -
Stefan Lončar Akron Активный 110 / 129 40% 1 16.02.2027 -
Arsen Adamov Akhmat Grozny Активный 123 / 123 40% 2 15.02.2027 -
Ramazan Gadjimuradov Chelyabinsk Активный 112 / 115 40% 1 14.02.2027 -
Lechi Sadulaev Akhmat Grozny Активный 108 / 132 40% 1 12.02.2027 -
Radhi Al-Otaibi Al-Ettifaq Активный 91 / 127 40% 1 10.02.2027 -
Miloš Brnović Arsenal Tula Активный 116 / 128 40% 1 06.02.2027 -
Mohau Nkota Al-Ettifaq Активный 118 / 131 40% 1 01.02.2027 -
Alexandr Ektov Nizhniy Novgorod Активный 98 / 123 40% 1 29.01.2027 -
Yeangel Montero Naxxar Lions Активный 104 / 111 40% 2 20.01.2027 Нужно больше данных
Ruslan Apekov Torpedo Moscow Активный 92 / 102 40% 3 29.12.2026 -
Moussa Koné Al-Ra'ed Активный 130 / 113 40% 1 29.12.2026 -
Andre Green AVS Активный 114 / 112 40% 2 27.12.2026 -
Prince Ibara Al-Njoom Активный 118 / 90 40% 1 27.12.2026 -
Peter Olayinka Al-Wehda Активный 122 / 118 40% 2 25.12.2026 -
Eren Aydın Zira Активный 107 / 112 40% 1 25.12.2026 -
John Kennedy Fluminense Активный 121 / 132 40% 2 24.12.2026 Нужно больше данных
Joaquín Bigo Tristán Suárez Активный 99 / 106 40% 1 23.12.2026 -
Tommaso Orsini Sambenedettese Активный 103 / 95 40% 1 23.12.2026 -
Moussakoye Diallo Stade Malien Активный 105 / 89 40% 1 21.12.2026 -
Leandro Antunes Al-Riyadh Активный 105 / 118 40% 2 20.12.2026 -
Kenan Dervišagić Floriana Активный 104 / 100 40% 1 20.12.2026 -
Nathan Ordaz Metalist Активный 102 / 99 40% 1 19.12.2026 -
Martin Sekulić Ural Активный 110 / 108 40% 3 16.12.2026 -
Taofeek Ismaheel Qarabag Активный 120 / 102 40% 1 16.12.2026 -
Alexandr Yushin Torpedo Moscow Активный 90 / 95 40% 3 15.12.2026 -
Mikhail Ignatov Sochi Активный 124 / 125 40% 1 14.12.2026 -
Dmitry Tsypchenko Torpedo Moscow Активный 90 / 121 40% 1 13.12.2026 -
Ruslan Ozobic Inter Активный 113 / 115 40% 1 05.12.2026 -
Jurica Poldrugač Rudes Активный 116 / 90 40% 1 05.12.2026 -
Daniil Frolkin Fakel Активный 120 / 122 40% 1 05.12.2026 -
Islam Imamov SKA Khabarovsk Активный 113 / 80 40% 1 02.12.2026 -
Mésaque Djú Portimonense Активный 100 / 97 40% 1 27.11.2026 -
Marcelo Torres Gimnasia La Plata Активный 121 / 121 40% 1 23.11.2026 -
David Sangaré Ryazan Активный 87 / 74 40% 1 23.11.2026 -
Anton Andersson Falkenberg Активный 102 / 88 40% 1 23.11.2026 -
Luke McGee Tranmere Rovers Активный 97 / 97 40% 1 22.11.2026 -
Filip Marschall Stevenage Активный 111 / 120 40% 2 20.11.2026 -
Kamil Conteh Bristol Rovers Активный 109 / 100 40% 1 17.11.2026 -
Stefan Despotovski OFK Beograd Активный 83 / 116 40% 1 17.11.2026 -
Facundo Castro Defensor Sporting Активный 124 / 112 40% 1 02.08.2026 -